{"data":{"norad_id":64161,"intl_designator":"2025-112R","name":"STARLINK-34341","alt_names":[],"object_type":"PAYLOAD","status":"ACTIVE","operator":null,"country":"US","launch_date":"2025-05-27","launch_site_code":"AFWTR","launch_vehicle":null,"mission":null,"orbit_class":"UNKNOWN","rcs_meters":null,"size_class":null,"mass_kg":null,"dimensions":null,"purposes":["comms"],"wikipedia_slug":null,"has_3d_model":false,"image_url":null,"decayed_at":null,"tle_current":{"epoch":"2026-09-20T22:46:05.679840Z","epoch_age_seconds":101648,"freshness":"FRESH","line1":"1 64161U 25112R   26263.94867685  .00015847  00000+0  49272-3 0  9992","line2":"2 64161  97.2812 310.9645 0003068  95.8365 264.3227 15.33406125 72814","mean_motion":15.33406125,"eccentricity":0.0003068,"inclination_deg":97.2812,"raan_deg":310.9645,"arg_perigee_deg":95.8365,"mean_anomaly_deg":264.3227,"bstar":0.00049272,"rev_number":7281,"period_min":93.908585372319,"perigee_km":463.55916500666,"apogee_km":467.75851813504,"semimajor_km":6843.7958415708,"source":"CELESTRAK","updated_at":"2026-09-21T09:00:35.240465Z"}}}